DECAYED

CZ-7 R/B, 61984 (Decayed)

Orbit data source: Space-Track

CZ-7 R/B, 61984 was space debris in LEO originally from a launch on Fri, 15 Nov 2024 UTC launched from the Wenchang Satellite Launch Center (WSC). Debris objects in space refer to the collection of defunct objects orbiting the Earth. Examples of debris include non-operational satellites, rocket bodies, and fragments generated from explosions, collisions, or faulty payload assembly.

Not visible in the next 10 days
CZ-7 R/B details
Identifier
61984, 2024-211B
Orbit
Decayed
Last TLE update3 weeks ago
Origin
Flag of CNCNSA (CN / PRC)
ManufacturerCALT
MissionDecayed spacecraft
Bus & MotorCZ-7 STAGE 2, Unknown motor
Mass6,000 kg wet, 6,000 kg dry
Launch date (UTC)
2024-11-15 (1 month ago)
Launch vehicleUnknown
Launch site
Wenchang Satellite Launch Center (WSC)
Object type
Payload
Rocket body
Debris
Shape & HBRUnknown
Radar Cross SectionLarge (>1 m²)

Expand to show TLE details & history

TLE from 3 weeks ago
0 CZ-7 R/B
1 61984U 24211B   24329.35362730  .09040425  80355-5  18818-3 0  9996
2 61984  41.4473 181.8548 0027109 242.9030 295.1652 16.43893066  1408
Epoch: 2024-11-24T08:29Z
Definitive object data (Epoch: 2024-11-24T08:29:13.398Z)
Latitude1.41633°
Longitude169.16035°
Altitude147.386 km
Speed7.824 km/s
True Right ascension00h 01m 02s
True Declination1° 24' 25"
Sunlit
Object was in full shadow at TLE epoch
Visualization observer readout
Observer readout values are unavailable because the object's trajectory could not be propagated. This is usually caused when the trajectory data is faulty or the object's orbit has decayed.
Visualization observer readout
Observer readout values are unavailable because the object's trajectory could not be propagated. This is usually caused when the trajectory data is faulty or the object's orbit has decayed.
Orbital elements
Apogee altitude175.5 km
Perigee altitude140.064 km
Semi-major axis6,535.919 km
Eccentricity0.0027109
Inclination41.4473°
RAAN181.8548°
Arg. of periapsis242.903°
True anomaly294.88363°
Mean anomaly295.1652°
Eccentric anomaly295.02446°
Mean motion4.10755 °/min
BSTAR0.00018818
Orbital period87.64 mins
Loading maneuver chart data...
Loading historical data...
Loading historical data...
Loading historical data...
Loading historical data...
Loading historical data...
Loading historical data...
Loading historical data...

CZ-7 R/B Visibility forecast

Observer location: undefined°, undefined

This satellite is decayed
Span
Click to sort rows by Start time (UTC) header in descending order
Start Az.
Max El. time (UTC)
Max El. Az.
Max El.
End time (UTC)
End Az.
|